Location: ???? ??
(36.0534°N, 43.5630°E)
Time: 05:13:43
(UTC+00:00)

CZ-2C R/B - Pass Details

Date: 18 September 2019
Orbit: 639 x 705 km, 98.4° (Epoch: 18 October)

Event Time Altitude Azimuth Distance (km) Brightness Sun altitude
Rises 16:45:41 0° 8° (N) 2,967 7.2 -20.0°
Reaches altitude 10° 16:47:56 10° 4° (N) 2,047 6.4 -20.4°
Maximum altitude 16:52:18 58° 286° (WNW) 751 4.2 -21.2°
Drops below altitude 10° 16:56:36 10° 208° (SSW) 2,023 6.3 -22.1°
Sets 16:58:49 0° 204° (SSW) 2,928 7.1 -22.5°
